Stations météo

réclame
Mon MeteoGroup
Arezzo, Italie (16172): Température de l'air & dewpoint: 06.12.2017 20:00:00 - 12.12.2017 20:00:00 (CET)Arezzo, Italie (16172): Vitesse du vent: 06.12.2017 20:00:00 - 12.12.2017 20:00:00 (CET)Arezzo, Italie (16172): Direction du vent: 06.12.2017 20:00:00 - 12.12.2017 20:00:00 (CET)Arezzo, Italie (16172): reduced air pressure: 06.12.2017 20:00:00 - 12.12.2017 20:00:00 (CET)Arezzo, Italie (16172): visibility: 06.12.2017 20:00:00 - 12.12.2017 20:00:00 (CET)
Date & Time tt [°C] td [°C] ff [km/h] ff [knt] dd ppp [hPa] vv [km]
12.12.2017 20:00:00 - - - - - - -
12.12.2017 19:00:00 8,0 7,1 0 0 N 1015,2 4,0
12.12.2017 18:00:00 - - - - - - -
12.12.2017 17:00:00 - - - - - - -
12.12.2017 16:00:00 8,2 7,1 0 0 N 1014,0 4,0
12.12.2017 15:00:00 - - - - - - -
12.12.2017 14:00:00 - - - - - - -
12.12.2017 13:00:00 9,0 7,0 0 0 N 1013,0 8
12.12.2017 12:00:00 - - - - - - -
12.12.2017 11:00:00 - - - - - - -
12.12.2017 10:00:00 10,0 8,4 5 3 S 1011,2 12
12.12.2017 09:00:00 - - - - - - -
12.12.2017 08:00:00 - - - - - - -
12.12.2017 07:00:00 10,0 9,4 11 6 W 1008,1 8
12.12.2017 06:00:00 - - - - - - -
12.12.2017 05:00:00 - - - - - - -
12.12.2017 04:00:00 14,0 9,8 29 16 S 1004,8 14
12.12.2017 03:00:00 - - - - - - -
12.12.2017 02:00:00 - - - - - - -
12.12.2017 01:00:00 14,0 9,1 37 20 SSE 1003,7 14
12.12.2017 00:00:00 - - - - - - -
11.12.2017 23:00:00 - - - - - - -
11.12.2017 22:00:00 13,0 8,3 29 16 S 1003,2 14
11.12.2017 21:00:00 - - - - - - -
11.12.2017 20:00:00 - - - - - - -
11.12.2017 19:00:00 13,0 8,3 29 16 SSE 1002,6 14
11.12.2017 18:00:00 - - - - - - -
11.12.2017 17:00:00 - - - - - - -
11.12.2017 16:00:00 14,2 9,4 31 17 S 1001,9 16
11.12.2017 15:00:00 - - - - - - -
11.12.2017 14:00:00 - - - - - - -
11.12.2017 13:00:00 13,8 9,1 34 18 S 1002,0 16
11.12.2017 12:00:00 - - - - - - -
11.12.2017 11:00:00 - - - - - - -
11.12.2017 10:00:00 13,2 7,4 37 20 S 1002,7 15
11.12.2017 09:00:00 - - - - - - -
11.12.2017 08:00:00 - - - - - - -
11.12.2017 07:00:00 13,2 8,5 26 14 S 1002,1 15
11.12.2017 06:00:00 - - - - - - -
11.12.2017 05:00:00 - - - - - - -
11.12.2017 04:00:00 12,8 8,5 29 16 S 1003,2 13
11.12.2017 03:00:00 - - - - - - -
11.12.2017 02:00:00 - - - - - - -
11.12.2017 01:00:00 11,6 7,9 24 13 S 1005,4 12
11.12.2017 00:00:00 - - - - - - -
10.12.2017 23:00:00 - - - - - - -
10.12.2017 22:00:00 8,8 7,1 22 12 S 1007,6 5
10.12.2017 21:00:00 - - - - - - -
10.12.2017 20:00:00 - - - - - - -
10.12.2017 19:00:00 7,0 4,5 34 18 S 1008,7 8
10.12.2017 18:00:00 - - - - - - -
10.12.2017 17:00:00 - - - - - - -
10.12.2017 16:00:00 5,0 2,5 18 10 S 1011,8 5
10.12.2017 15:00:00 - - - - - - -
10.12.2017 14:00:00 - - - - - - -
10.12.2017 13:00:00 1,6 -2,4 5 3 NNW 1016,7 14
10.12.2017 12:00:00 - - - - - - -
10.12.2017 11:00:00 - - - - - - -
10.12.2017 10:00:00 -0,4 -2,9 0 0 N 1019,1 20
10.12.2017 09:00:00 - - - - - - -
10.12.2017 08:00:00 - - - - - - -
10.12.2017 07:00:00 -5,4 -6,1 0 0 N 1019,7 15
10.12.2017 06:00:00 - - - - - - -
10.12.2017 05:00:00 - - - - - - -
10.12.2017 04:00:00 -5,4 -6,1 0 0 N 1019,7 8
10.12.2017 03:00:00 - - - - - - -
10.12.2017 02:00:00 - - - - - - -
10.12.2017 01:00:00 -4,4 -5,1 0 0 N 1019,5 10
10.12.2017 00:00:00 - - - - - - -
09.12.2017 23:00:00 - - - - - - -
09.12.2017 22:00:00 -3,0 -3,8 0 0 N 1018,7 11
09.12.2017 21:00:00 - - - - - - -
09.12.2017 20:00:00 - - - - - - -
09.12.2017 19:00:00 -1,2 -2,5 5 3 ESE 1016,3 16
09.12.2017 18:00:00 - - - - - - -
09.12.2017 17:00:00 - - - - - - -
09.12.2017 16:00:00 4,0 -3,5 4 2 NE 1013,7 20
09.12.2017 15:00:00 - - - - - - -
09.12.2017 14:00:00 - - - - - - -
09.12.2017 13:00:00 6,2 -3,7 13 7 N 1011,4 20
09.12.2017 12:00:00 - - - - - - -
09.12.2017 11:00:00 - - - - - - -
09.12.2017 10:00:00 2,4 1,7 4 2 SW 1011,0 14
09.12.2017 09:00:00 - - - - - - -
09.12.2017 08:00:00 - - - - - - -
09.12.2017 07:00:00 3,4 2,2 0 0 N 1009,4 11
09.12.2017 06:00:00 - - - - - - -
09.12.2017 05:00:00 - - - - - - -
09.12.2017 04:00:00 7,0 1,9 11 6 S 1007,9 12
09.12.2017 03:00:00 - - - - - - -
09.12.2017 02:00:00 - - - - - - -
09.12.2017 01:00:00 8,4 2,8 8 4 SSW 1009,6 12
09.12.2017 00:00:00 - - - - - - -
08.12.2017 23:00:00 - - - - - - -
08.12.2017 22:00:00 11,0 7,1 26 14 S 1010,7 10
08.12.2017 21:00:00 - - - - - - -
08.12.2017 20:00:00 - - - - - - -
08.12.2017 19:00:00 10,4 6,9 28 15 S 1012,2 7
08.12.2017 18:00:00 - - - - - - -
08.12.2017 17:00:00 - - - - - - -
08.12.2017 16:00:00 9,2 7,7 11 6 SSE 1016,4 4,0
08.12.2017 15:00:00 - - - - - - -
08.12.2017 14:00:00 - - - - - - -
08.12.2017 13:00:00 11,0 4,7 18 10 SSW 1019,8 15
08.12.2017 12:00:00 - - - - - - -
08.12.2017 11:00:00 - - - - - - -
08.12.2017 10:00:00 9,2 3,8 21 11 S 1022,0 12
08.12.2017 09:00:00 - - - - - - -
08.12.2017 08:00:00 - - - - - - -
08.12.2017 07:00:00 7,2 4,5 11 6 S 1024,3 10
08.12.2017 06:00:00 - - - - - - -
08.12.2017 05:00:00 - - - - - - -
08.12.2017 04:00:00 7,2 4,7 15 8 S 1026,8 12
08.12.2017 03:00:00 - - - - - - -
08.12.2017 02:00:00 - - - - - - -
08.12.2017 01:00:00 7,2 3,6 15 8 S 1029,0 10
08.12.2017 00:00:00 - - - - - - -
07.12.2017 23:00:00 - - - - - - -
07.12.2017 22:00:00 6,0 5,1 0 0 N 1030,3 1,5
07.12.2017 21:00:00 - - - - - - -
07.12.2017 20:00:00 - - - - - - -
07.12.2017 19:00:00 5,2 4,5 0 0 N 1031,2 3,0
07.12.2017 18:00:00 - - - - - - -
07.12.2017 17:00:00 - - - - - - -
07.12.2017 16:00:00 6,2 5,0 0 0 N 1032,0 4,0
07.12.2017 15:00:00 - - - - - - -
07.12.2017 14:00:00 - - - - - - -
07.12.2017 13:00:00 6,0 2,8 0 0 N 1033,3 5
07.12.2017 12:00:00 - - - - - - -
07.12.2017 11:00:00 - - - - - - -
07.12.2017 10:00:00 5,2 2,6 4 2 N 1033,9 1,8
07.12.2017 09:00:00 - - - - - - -
07.12.2017 08:00:00 - - - - - - -
07.12.2017 07:00:00 3,0 2,4 4 2 S 1034,2 1,3
07.12.2017 06:00:00 - - - - - - -
07.12.2017 05:00:00 - - - - - - -
07.12.2017 04:00:00 2,4 1,7 4 2 ESE 1035,1 1,6
07.12.2017 03:00:00 - - - - - - -
07.12.2017 02:00:00 - - - - - - -
07.12.2017 01:00:00 1,8 1,5 0 0 N 1035,6 2,0
07.12.2017 00:00:00 - - - - - - -
06.12.2017 23:00:00 - - - - - - -
06.12.2017 22:00:00 2,6 1,6 0 0 N 1035,6 8
06.12.2017 21:00:00 - - - - - - -
06.12.2017 20:00:00 - - - - - - -

tt = Température de l'air
td = dewpoint
ff = Vitesse du vent
dd = Direction du vent
ppp = reduced air pressure
vv = visibility

stations d'obs. à proximité